Location: Silverdale
(47.6506°N, 122.6941°W)
Time: 00:48:04
(UTC+00:00)

A-11 Canister half - Pass Details

Date: 12 October 2022
Orbit: 1524 x 1685 km, 47.3° (Epoch: 05 December)

Event Time Altitude Azimuth Distance (km) Brightness Sun altitude
Rises 02:27:12 0° 288° (WNW) 4,681 13.2 -10.4°
Reaches altitude 10° 02:30:17 10° 285° (WNW) 3,704 12.4 -11.0°
Maximum altitude 02:39:20 58° 210° (SSW) 1,774 9.5 -12.5°
Drops below altitude 10° 02:48:38 10° 134° (SE) 3,791 10.6 -14.1°
Enters shadow 02:49:37 - 133° (SE) 4,102 10.8 -14.2°
